DW0307 Weather Reports


time (UTC)temp
C
wind
direction
speed
KPH
gust
KPH
rain 1hr
cm
rain 24hr
cm
rain mn
cm
humidity
%
barometer
mb
20260905083100 16 248 29.0 43.5 0.00 0.00 0.00 68 1016.7
20260905081559 18 251 33.8 57.9 0.00 0.00 0.00 62 1016.7
20260905080101 19 245 20.9 33.8 0.00 0.00 0.00 60 1016.9
20260905074609 20 227 16.1 29.0 0.00 0.00 0.00 60 1016.6
20260905073056 18 0 8.0 35.4 0.00 0.00 0.00 64 1016.2
20260905071552 18 199 9.7 20.9 0.00 0.00 0.00 70 1017.1
20260905070055 18 126 1.6 9.7 0.00 0.00 0.00 74 1016.8
20260905064609 17 360 6.4 12.9 0.00 0.00 0.00 76 1017.2
20260905063058 17 26 9.7 17.7 0.00 0.00 0.00 78 1016.8
20260905061553 16 302 8.0 22.5 0.00 0.00 0.00 78 1016.4
20260905060050 16 242 8.0 25.7 0.00 0.00 0.00 81 1016.4
20260905054600 15 209 1.6 6.4 0.00 0.00 0.00 84 1016.4
20260905053055 14 232 0.0 4.8 0.00 0.00 0.00 85 1016.2
20260905051553 13 0 1.6 8.0 0.00 0.00 0.00 85 1016.2
20260905050056 13 252 6.4 11.3 0.00 0.00 0.00 84 1015.8
20260905044550 14 273 0.0 6.4 0.00 0.00 0.00 82 1015.4
20260905043058 15 238 0.0 8.0 0.00 0.00 0.00 81 1015.3
20260905041558 15 64 0.0 9.7 0.00 0.00 0.00 81 1015.3
20260905040050 16 0 4.8 16.1 0.00 0.00 0.00 82 1015.1
20260905034604 16 229 9.7 17.7 0.00 0.00 0.00 82 1015.2
20260905033059 16 113 4.8 9.7 0.00 0.00 0.00 80 1014.7
20260905031612 17 118 0.0 4.8 0.00 0.00 0.00 79 1014.8
20260905030115 17 49 6.4 16.1 0.00 0.00 0.00 77 1014.6
20260905024606 18 124 9.7 20.9 0.00 0.00 0.00 70 1014.2
20260905023102 18 66 4.8 22.5 0.00 0.00 0.00 70 1013.9
20260905021606 18 46 4.8 20.9 0.00 0.00 0.00 70 1013.6
20260905020055 18 213 16.1 25.7 0.00 0.00 0.00 69 1013.2
20260905014557 18 213 17.7 29.0 0.00 0.00 0.00 70 1012.9
20260905013057 18 217 19.3 29.0 0.00 0.00 0.00 70 1013.0
20260905011555 17 215 20.9 30.6 0.00 0.00 0.00 72 1013.0
20260905010103 16 221 19.3 29.0 0.00 0.00 0.00 76 1013.2
20260905004551 15 234 9.7 14.5 0.00 0.00 0.00 79 1013.3
20260905003059 15 242 8.0 12.9 0.00 0.00 0.00 77 1013.3
20260905001603 16 244 9.7 14.5 0.00 0.00 0.00 75 1013.4
20260905000050 16 249 12.9 17.7 0.00 0.00 0.00 74 1013.4
20260904234553 17 238 16.1 22.5 0.00 0.00 0.00 74 1013.6
20260904233048 16 247 16.1 22.5 0.00 0.00 0.00 74 1013.9
20260904231556 17 248 14.5 22.5 0.00 0.00 0.00 72 1013.6
20260904230051 17 228 19.3 24.1 0.00 0.00 0.00 72 1013.8
20260904224601 17 250 19.3 29.0 0.00 0.00 0.00 72 1013.8
20260904223059 17 212 20.9 29.0 0.00 0.00 0.00 71 1013.7
20260904221555 17 224 17.7 24.1 0.00 0.00 0.00 71 1014.1
20260904220107 18 221 16.1 24.1 0.00 0.00 0.00 70 1014.4
20260904214549 18 229 19.3 27.4 0.00 0.00 0.00 69 1014.4
20260904213052 19 227 20.9 27.4 0.00 0.00 0.00 66 1014.3
20260904211555 20 244 19.3 32.2 0.00 0.00 0.00 65 1014.3
20260904210106 19 236 25.7 32.2 0.00 0.00 0.00 67 1014.4
20260904204553 19 248 22.5 35.4 0.00 0.00 0.00 67 1014.4
20260904203052 20 241 24.1 30.6 0.00 0.00 0.00 67 1014.6
20260904201552 19 250 17.7 29.0 0.00 0.00 0.00 67 1014.7
20260904200109 20 240 22.5 37.0 0.00 0.00 0.00 66 1014.9
20260904194633 20 243 29.0 40.2 0.00 0.00 0.00 66 1014.7
20260904193052 20 250 29.0 37.0 0.00 0.00 0.00 66 1014.7
20260904191552 20 251 27.4 38.6 0.00 0.00 0.00 65 1014.7
20260904190059 20 242 29.0 41.8 0.00 0.00 0.00 65 1014.9
20260904184604 20 252 25.7 41.8 0.00 0.00 0.00 66 1015.1
20260904183050 20 262 32.2 43.5 0.00 0.00 0.00 65 1014.9
20260904181600 20 254 30.6 45.1 0.00 0.00 0.00 64 1014.8
20260904180054 20 232 29.0 37.0 0.00 0.00 0.00 65 1014.8
20260904174550 20 239 24.1 35.4 0.00 0.00 0.00 65 1014.9
20260904173109 20 258 24.1 32.2 0.00 0.00 0.00 65 1014.7
20260904171551 20 240 22.5 33.8 0.00 0.00 0.00 64 1014.8
20260904170054 21 225 27.4 41.8 0.00 0.00 0.00 63 1014.8
20260904164602 21 244 32.2 46.7 0.00 0.00 0.00 62 1014.8
20260904163057 21 227 33.8 49.9 0.00 0.00 0.00 62 1014.8
20260904161554 21 248 25.7 49.9 0.00 0.00 0.00 61 1014.9
20260904160103 21 240 30.6 43.5 0.00 0.00 0.00 60 1015.1
20260904154617 21 247 24.1 40.2 0.00 0.00 0.00 60 1015.4
20260904153057 22 259 29.0 48.3 0.00 0.00 0.00 58 1015.6
20260904151601 22 249 32.2 45.1 0.00 0.00 0.00 58 1015.6
20260904150050 22 252 29.0 41.8 0.00 0.00 0.00 59 1015.6
20260904144600 22 262 30.6 41.8 0.00 0.00 0.00 59 1015.9
20260904143056 21 242 32.2 46.7 0.00 0.00 0.00 58 1016.1
20260904141617 22 236 33.8 49.9 0.00 0.00 0.00 58 1016.1
20260904140104 22 252 35.4 48.3 0.00 0.00 0.00 58 1015.8
20260904134619 21 254 35.4 49.9 0.00 0.00 0.00 59 1015.9
20260904133109 22 248 43.5 57.9 0.00 0.00 0.00 55 1016.3
20260904131607 23 244 37.0 53.1 0.00 0.00 0.00 53 1016.4
20260904130050 23 244 37.0 53.1 0.00 0.00 0.00 55 1016.7
20260904124548 23 261 37.0 53.1 0.00 0.00 0.00 54 1016.7
20260904123053 22 244 35.4 49.9 0.00 0.00 0.00 55 1016.6
20260904121549 22 259 37.0 53.1 0.00 0.00 0.00 54 1016.8
20260904120059 22 259 41.8 54.7 0.00 0.00 0.00 54 1017.2
20260904114552 21 258 40.2 51.5 0.00 0.00 0.00 56 1017.3
20260904113050 21 254 38.6 48.3 0.00 0.00 0.00 55 1017.3
20260904111601 22 234 37.0 48.3 0.00 0.00 0.00 57 1017.7
20260904110057 21 244 30.6 53.1 0.00 0.00 0.00 58 1017.8
20260904104552 21 256 37.0 53.1 0.00 0.00 0.00 59 1018.2
20260904103053 21 246 33.8 49.9 0.00 0.00 0.00 59 1017.9
20260904101553 21 248 32.2 46.7 0.00 0.00 0.00 60 1018.0
20260904100105 20 264 33.8 48.3 0.00 0.00 0.00 63 1018.0
20260904094552 20 242 29.0 43.5 0.00 0.00 0.00 65 1018.3
20260904093055 19 248 27.4 41.8 0.00 0.00 0.00 66 1018.4
20260904091550 20 256 30.6 45.1 0.00 0.00 0.00 65 1018.4
20260904090057 20 258 29.0 38.6 0.00 0.00 0.00 63 1018.6
20260904084554 20 271 24.1 37.0 0.00 0.00 0.00 65 1019.1